Regional Weather Roundup
Issued by NWS

Home | Current Version | Previous Version | Text Only | Print | Product List | Glossary Off
Versions: 1 2 3 4 5 6 7 8 9 10 11 12 13 14 15 16 17 18 19 20 21 22 23 24 25 26 27 28 29 30 31 32 33 34 35 36 37 38 39 40 41 42 43 44 45 46 47 48 49 50

000
ASUS43 KOAX 250602
RWRNE

WEATHER ROUNDUP FOR NEBRASKA
NATIONAL WEATHER SERVICE OMAHA NE
100 AM CDT WED MAY 25 2016

NOTES: SATELLITE DATA IS BEING USED TO AUGMENT CLOUD COVER ABOVE
       12000 FEET.
       "FAIR" INDICATES FEW OR NO CLOUDS BELOW 12,000 FEET WITH NO
       SIGNIFICANT WEATHER AND/OR OBSTRUCTIONS TO VISIBILITY.

  * THESE STATIONS DO NOT REPORT WEATHER SUCH AS RAIN...SNOW OR FOG.

NEZ001>004-019>022-054>056-250700-
NEBRASKA PANHANDLE

CITY           SKY/WX    TMP DP  RH WIND       PRES   REMARKS
SCOTTSBLUFF    PTCLDY    52  47  83 E6        29.86R
6HR MIN TEMP:  52; 6HR MAX TEMP:  71; 6HR PCP:  0.01;

ALLIANCE       CLOUDY    51  49  92 NE13      29.83S
6HR MIN TEMP:  51; 6HR MAX TEMP:  71; 6HR PCP:  0.09;

CHADRON        CLOUDY    53  50  90 E9        29.82R
6HR MIN TEMP:  52; 6HR MAX TEMP:  73; 6HR PCP:  0.02;

SIDNEY         CLOUDY    54  49  83 E14       29.85R
6HR MIN TEMP:  53; 6HR MAX TEMP:  69; 6HR PCP:  0.21;

$$

NEZ057>060-069>072-079>082-250700-
SOUTHWEST NEBRASKA

CITY           SKY/WX    TMP DP  RH WIND       PRES   REMARKS
NORTH PLATTE   CLOUDY    58  53  84 N10       29.80F
6HR MIN TEMP:  55; 6HR MAX TEMP:  74; 6HR PCP:  0.51;

IMPERIAL       TSTM      56  52  86 N10G31    29.81S FOG
6HR MIN TEMP:  54; 6HR MAX TEMP:  73; 6HR PCP:  0.26;

LEXINGTON      RAIN      60  55  83 N15       29.86F
MCCOOK         CLOUDY    62  54  74 E8        29.81F
6HR MIN TEMP:  62; 6HR MAX TEMP:  75;

$$

NEZ005>010-023>029-035>040-094-250700-
NORTH CENTRAL NEBRASKA

CITY           SKY/WX    TMP DP  RH WIND       PRES   REMARKS
VALENTINE      CLOUDY    57  50  78 N16G29    29.80F
6HR MIN TEMP:  56; 6HR MAX TEMP:  80; 6HR PCP:  0.48;

AINSWORTH      RAIN      57  55  94 NW13      29.86F
BROKEN BOW     TSTM      58  54  86 NW18G25   29.91R FOG
6HR MIN TEMP:  56; 6HR MAX TEMP:  79; 6HR PCP:  0.29;

ORD            CLOUDY    66  61  84 SW8       29.82R
6HR MIN TEMP:  66; 6HR MAX TEMP:  79;

$$

NEZ041-046>049-061>064-073>077-083>087-250700-
SOUTH CENTRAL NEBRASKA

CITY           SKY/WX    TMP DP  RH WIND       PRES   REMARKS
GRAND ISLAND   CLOUDY    70  63  78 SE9       29.77F
6HR MIN TEMP:  70; 6HR MAX TEMP:  78;

HASTINGS       CLOUDY    69  62  78 SE3       29.77F
6HR MIN TEMP:  69; 6HR MAX TEMP:  78;

KEARNEY *      CLOUDY    68  61  77 W7        29.83R
YORK           LGT RAIN  70  64  83 SE29G36   29.78F
$$

NEZ011>018-030>034-042>045-250700-
NORTHEAST NEBRASKA

CITY           SKY/WX    TMP DP  RH WIND       PRES   REMARKS
NORFOLK        CLOUDY    70  59  68 SE16G22   29.80F
6HR MIN TEMP:  67; 6HR MAX TEMP:  81;

ALBION         CLOUDY    70  58  65 SE13G21   29.80S
FREMONT        CLOUDY    71  63  74 SE14      29.84F
TEKAMAH        CLOUDY    69  62  78 SE15      29.83F
6HR MIN TEMP:  65; 6HR MAX TEMP:  81;

$$

NEZ050>053-065>068-078-088>093-250700-
SOUTHEAST NEBRASKA

CITY           SKY/WX    TMP DP  RH WIND       PRES   REMARKS
LINCOLN        LGT RAIN  67  60  78 S20G33    29.88R
6HR MIN TEMP:  67; 6HR MAX TEMP:  81; 6HR PCP: TRACE;

OMAHA EPPLEY   CLOUDY    73  64  73 SE10      29.85F
6HR MIN TEMP:  71; 6HR MAX TEMP:  81;

FALLS CITY     CLOUDY    72  66  81 SE6       29.86F
6HR MIN TEMP:  72; 6HR MAX TEMP:  83;

$$

NEZ044-045-051>053-067-250700-
OMAHA AREA

CITY           SKY/WX    TMP DP  RH WIND       PRES   REMARKS
OMAHA EPPLEY   CLOUDY    73  64  73 SE10      29.85F
6HR MIN TEMP:  71; 6HR MAX TEMP:  81;

FREMONT        CLOUDY    71  63  74 SE14      29.84F
$$



USA.gov is the U.S. government's official web portal to all federal, state and local government web resources and services.